Tracking 29892 objects as of 21-Nov-2024
HD Live streaming from Space Station
objects crossing your sky now

FLOCK 4Y 14

Track FLOCK 4Y 14 now!
10-day predictions
FLOCK 4Y 14 is classified as:


NORAD ID: 55024
Int'l Code: 2023-001R
Perigee: 449.5 km
Apogee: 458.8 km
Inclination: 97.4 °
Period: 93.5 minutes
Semi major axis: 6825 km
RCS: Unknown
Launch date: January 3, 2023
Source: United States (US)
Launch site: AIR FORCE EASTERN TEST RANGE (AFETR)
Your satellite tracking list
Your tracking list is empty




NASA's NSSDC Master Catalog

Two Line Element Set (TLE):
1 55024U 23001R   24325.16909420  .00043645  00000-0  11011-2 0  9997
2 55024  97.4010  27.5418 0006788 339.1772  20.9196 15.39702845104676
Source of the keplerian elements: AFSPC